Flag for Pakistan Weather past 2 weeks in Peshawar, Pakistan

Now
52 °F

Cool.


Feels Like: N/A
Forecast: 39 / 64 °F
Wind: N/A

Location: Peshawar Airport

Current Time: Jan 30, 2015 at 10:55:24 PM

Latest Report: Jan 30, 2015 at 10:00 PM


Visibility: N/A

Pressure: 30.15 "Hg

Humidity: 54%

Dew point: 36 °F

Location of PeshawarLocation

Historic Weather in Peshawar — Graph

°F

Peshawar temperature yesterday

Maximum temperature yesterday: 64 °F (at 3:00 PM)
Minimum temperature yesterday: 41 °F (at 6:00 AM)
Average temperature yesterday: 51 °F

Past Weeks' High & Low Weather Summary

 TemperatureHumidityPressure
High72 °F (Jan 17, 3:00 PM)100% (Jan 21, 6:00 PM)30.27 "Hg (Jan 21, 6:00 PM)
Low39 °F (Jan 28, 7:00 AM)27% (Jan 17, 3:00 PM)29.89 "Hg (Jan 19, 3:00 PM)
Average53 °F65%30.13 "Hg
* Reported Jan 15 9:00 PM — Jan 30 9:00 PM, Peshawar, Weather by CustomWeather, © 2014

Note: Actual official high and low records may vary slightly from our data, if they occured in-between our weather recording intervals... More about our weather records

Advertising

Peshawar weather history for previous 24 hours

 ConditionsComfort  
Time TempWeatherWind HumidityBarometerVisibility
9:00 PM
Jan 30
52 °FCool.N/A54%30.15 "HgN/A
8:00 PM54 °FHaze.No wind47%30.12 "Hg2 mi
7:00 PM55 °FHaze.No wind44%30.12 "Hg2 mi
6:00 PM59 °FPassing clouds.No wind39%30.12 "Hg2 mi
5:00 PM63 °FScattered clouds.No wind34%30.12 "Hg2 mi
4:00 PM64 °FScattered clouds.No wind32%30.12 "Hg3 mi
3:00 PM63 °FScattered clouds.No wind34%30.15 "Hg3 mi
2:00 PM63 °FHaze.No wind34%30.18 "Hg3 mi
1:00 PM63 °FHaze.No wind34%30.21 "Hg3 mi
12:00 PM59 °FHaze.No wind39%30.24 "Hg3 mi
11:00 AM57 °FHaze.No wind41%30.24 "Hg2 mi
10:00 AM54 °FHaze.No wind44%30.24 "Hg2 mi
9:00 AM46 °FScattered clouds.No wind66%30.12 "Hg2 mi
8:00 AM41 °FHaze.No wind70%30.21 "Hg2 mi
7:00 AM41 °FHaze.No wind76%30.21 "Hg2 mi
6:00 AM43 °FQuite cool.N/A76%30.21 "HgN/A
5:00 AM43 °FClear.No wind76%30.18 "Hg2 mi
4:00 AM43 °FClear.No wind76%30.15 "Hg2 mi
3:00 AM43 °FClear.No wind76%30.15 "Hg2 mi
2:00 AM45 °FClear.No wind71%30.15 "Hg2 mi
1:00 AM45 °FClear.No wind71%30.15 "Hg2 mi
12:00 AM46 °FHaze.No wind71%30.18 "Hg2 mi
11:00 PM
Jan 29
46 °FCool.N/A71%30.18 "HgN/A
10:00 PM48 °FHaze.No wind66%30.18 "Hg2 mi
Weather by CustomWeather, © 2014

See weather overviewHow to use our weather pages